Regional Weather Roundup
Issued by NWS

Home | Current Version | Previous Version | Text Only | Print | Product List | Glossary On
Versions: 1 2 3 4 5 6 7 8 9 10 11 12 13 14 15 16 17 18 19 20 21 22 23 24 25 26 27 28 29 30 31 32 33 34 35 36 37 38 39 40 41 42 43 44 45 46 47 48 49 50
000
ASUS43 KMKX 271011
RWRWI

WISCONSIN REGIONAL WEATHER ROUNDUP
NATIONAL WEATHER SERVICE MILWAUKEE/SULLIVAN WI
500 AM CDT TUE JUN 27 2017

NOTE: "FAIR" INDICATES FEW OR NO CLOUDS BELOW 12,000 FEET WITH NO
SIGNIFICANT WEATHER AND/OR OBSTRUCTIONS TO VISIBILITY.

WIZ001-002-006>008-014>016-023>028-271100-
NORTHWEST WISCONSIN

CITY           SKY/WX    TMP DP  RH WIND       PRES   REMARKS
SUPERIOR ARPT  NOT AVBL
ASHLAND        CLEAR     49  46  90 SW8       30.03R
HAYWARD        CLEAR     44  41  89 CALM      30.06S
SIREN          CLEAR     45  44  96 CALM      30.07S
CUMBERLAND     CLEAR     46  45  93 CALM      30.08S
RICE LAKE      CLEAR     47  46  98 CALM      30.09S
CHETEK         CLEAR     46  46 100 CALM      30.08S
LADYSMITH      CLEAR     49  47  93 CALM      30.08S
EAU CLAIRE     CLEAR     49  46  90 SW5       30.07S
MENOMONIE      CLEAR     50  46  86 SW5       30.08F
NEW RICHMOND   CLEAR     49  47  92 S3        30.09S
OSCEOLA        CLEAR     46  46 100 CALM      30.11S
$$

WIZ003>005-009-010-017-018-271100-
NORTH CENTRAL WISCONSIN

CITY           SKY/WX    TMP DP  RH WIND       PRES   REMARKS
MANITOWISH WTR FOG       45  45 100 CALM      30.04S VSB 1/4
ARBOR VITAE    CLEAR     50  47  92 CALM      30.03S
WOODRUFF       CLEAR     50  47  92 CALM      30.03S
RHINELANDER    CLOUDY    48  48 100 W5        30.05S
EAGLE RIVER    MOCLDY    46  46  99 CALM      30.03S
LAND O LAKES   MOCLDY    45  45 100 CALM      30.05R
PHILLIPS       CLEAR     48  47  97 CALM      30.04F
TOMAHAWK       NOT AVBL
MEDFORD        CLEAR     49  46  88 SW3       30.07S
MERRILL        PTCLDY    42  42 100 CALM      30.06F
$$

WIZ029-030-035-036-043>047-271100-
CENTRAL WISCONSIN

CITY           SKY/WX    TMP DP  RH WIND       PRES   REMARKS
WAUSAU         MOCLDY    50  47  89 NW7       30.05S
MOSINEE        CLEAR     46  46 100 W5        30.07S
MARSHFIELD     PTCLDY    50  45  83 W7        30.07S
STEVENS POINT  CLEAR     41  41 100 CALM      30.08S
WAUPACA        CLEAR     52  49  89 W6        30.07S
WAUTOMA        CLEAR     44  43  96 CALM      30.08S
WISC RAPIDS    MOCLDY    50  47  89 W5        30.09S
CAMP DOUGLAS   CLEAR     42  41  99 CALM      30.09R
$$

WIZ011>013-019>022-031-037>040-048>050-271100-
NORTHEAST WISCONSIN

CITY           SKY/WX    TMP DP  RH WIND       PRES   REMARKS
ANTIGO         CLOUDY    42  42 100 CALM      30.06R
SHAWANO        CLEAR     50  46  88 W3        30.05R
OCONTO         CLEAR     46  45  97 W3        30.03S
STURGEON BAY     N/A     51  49  92 W3          N/A
GREEN BAY      CLEAR     49  48  97 W5        30.04S
MANITOWOC      CLEAR     53  47  79 W7        30.05R
APPLETON       CLEAR     46  46 100 W10       30.04S
CLINTONVILLE   CLEAR     46  43  87 CALM      30.06R
OSHKOSH        CLEAR     50  46  86 W3        30.06R
$$

WIZ032>034-041-042-053>061-271100-
SOUTHWEST WISCONSIN

CITY           SKY/WX    TMP DP  RH WIND       PRES   REMARKS
LA CROSSE      CLEAR     55  49  80 S7        30.10S
SPARTA         CLEAR     39  39  99 CALM        N/A
VIROQUA        CLEAR     51  46  84 W5        30.11S
BOSCOBEL       CLOUDY    50  48  93 SW3       30.13R
PRAIRIE DU CHI CLEAR     47  45  92 CALM      30.13R
PLATTEVILLE    CLEAR     50  47  91 W5        30.13S
$$

WIZ056-057-062-063-064-067-068-271100-
SOUTH CENTRAL WISCONSIN

CITY           SKY/WX    TMP DP  RH WIND       PRES   REMARKS
REEDSBURG      MOCLDY    46  46 100 CALM      30.10S
BARABOO/DELLS  PTCLDY    45  44  94 CALM      30.10S
LONE ROCK      CLEAR     46  44  93 CALM      30.12R
MINERAL POINT  CLEAR     52  46  82 W3        30.12S
MADISON        CLEAR     49  45  86 CALM      30.10R
MIDDLETON      CLEAR     48  47  95 CALM      30.11R
WATERTOWN      NOT AVBL
MONROE         CLEAR     52  43  71 W9        30.11S
JANESVILLE     CLEAR     48  48 100 CALM      30.11R
$$

WIZ051-052-058>065-066-070>072-271100-
SOUTHEAST WISCONSIN

CITY           SKY/WX    TMP DP  RH WIND       PRES   REMARKS
MILWAUKEE      CLEAR     54  47  77 W7        30.08S
WAUKESHA       CLEAR     45  43  93 CALM      30.10S
MILWAUKEE/TIMM PTCLDY    46  43  87 SW5       30.09S
RACINE         CLEAR     52  46  80 W5        30.10S
KENOSHA        CLEAR     48  45  89 SW3       30.09S
FOND DU LAC    CLEAR     50  45  83 SW3       30.08R
SHEBOYGAN      CLEAR     50  48  93 W6        30.06R
WEST BEND      CLEAR     50  46  87 W3        30.08R
JUNEAU         CLEAR     46  44  95 CALM      30.10R
$$

LSZ147-162-271100-
LAKE SUPERIOR

STATION/POSITION TIME  TEMP    WIND        PRES    WAVE
                       AIR SEA DIR/SP/G            HT/PER
                 (UTC) (F)     (DEG/KT/KT) (MB)    (FT/S)
W MID LAKE BUOY  0950   45 39  260/  6/  8 1016.0R   1
DEVILS ISLAND    1000   54     240/ 13/ 15 1016.2R
SAXON HARBOR     0940   55     170/  5/  7 1016.3R
$$

LMZ867-665-643>646-271100-
LAKE MICHIGAN

STATION/POSITION TIME  TEMP    WIND        PRES    WAVE
                       AIR SEA DIR/SP/G            HT/PER
                 (UTC) (F)     (DEG/KT/KT) (MB)    (FT/S)
CHAMBERS ISLAND  0940   53     230/  4/  6 1015.9S
S GREEN BAY BUOY 1000   55     280/ 14/ 16 1016.4
N MID LAKE BUOY  0950   56 54  270/  8/  8 1016.4R   1
NORTHPORT PIER   0940   57     270/  4/  7 1015.9R
KEWAUNEE LAKESHO 0942   51     280/  4/  6 1016.6R
SHEBOYGAN LAKESH 1000   54     270/ 11/ 12 1017.6R
PORT WASHINGTON  0940   54     270/  5/  9 1018.6S
ATWATER BUOY     0909   57 58  250/ 10/ 12 1018.3
MILWAUKEE LAKESH 0950   56     270/  7/  9   N/A
S MID LAKE BUOY  0950   59 61  290/ 10/ 12 1018.6R   2/ 4
KENOSHA   LAKESH 1000   55     260/  4/  6 1019.0
$$

TC  - TEMPERATURE IN CELSIUS
VSB - VISIBILITY IN STATUTE MILES
WCI - WIND CHILL INDEX
HX  - HEAT INDEX





USA.gov is the U.S. government's official web portal to all federal, state and local government web resources and services.